Location: Владивосток
(43.1151°N, 131.8856°E)
Time: 17:39:26
(UTC+10:00)

COSMOS 2251 DEB - Visible Passes

Search period start: 22 July 2024 00:00
Search period end: 01 August 2024 00:00
Orbit: 761 x 799 km, 74.0° (Epoch: 21 July)

Date Brightness Start Highest point End Pass type
(mag) Time Alt. Az. Time Alt. Az. Time Alt. Az.
22 Jul ? 01:22:21 10° NNE 01:25:49 17° NE 01:29:18 10° E visible
22 Jul ? 03:03:23 10° NNW 03:08:45 74° WSW 03:10:26 44° S visible
23 Jul ? 00:50:02 10° NNE 00:51:55 12° NE 00:53:47 10° ENE visible
23 Jul ? 02:29:52 10° NNW 02:35:13 72° ENE 02:36:48 46° SE visible
23 Jul ? 04:13:59 10° WNW 04:16:52 15° W 04:17:15 15° W visible
24 Jul ? 01:56:28 10° N 02:01:39 47° ENE 02:03:15 36° ESE visible
24 Jul ? 03:39:27 10° NW 03:43:37 23° W 03:43:43 23° W visible
25 Jul ? 01:23:13 10° N 01:27:58 31° ENE 01:29:46 25° E visible
25 Jul ? 03:05:25 10° NW 03:10:14 36° W 03:10:14 36° W visible
26 Jul ? 00:50:08 10° N 00:54:12 21° NE 00:56:21 17° E visible
26 Jul ? 02:31:38 10° NNW 02:36:49 57° W 02:36:49 57° W visible
27 Jul ? 00:17:23 10° NNE 00:20:21 15° NE 00:22:59 11° E visible
27 Jul ? 01:58:01 10° NNW 02:03:26 89° WSW 02:03:27 89° SW visible
27 Jul ? 03:43:26 10° WNW 03:43:56 11° W 03:43:56 11° W visible
28 Jul ? 01:24:33 10° NNW 01:29:53 60° ENE 01:30:08 59° E visible
28 Jul ? 03:08:06 10° NW 03:10:37 17° W 03:10:37 17° W visible
29 Jul ? 00:51:12 10° N 00:56:15 39° ENE 00:56:51 38° E visible
29 Jul ? 02:33:51 10° NW 02:37:20 26° W 02:37:20 26° W visible
30 Jul ? 00:18:01 10° N 00:22:31 27° ENE 00:23:36 25° ENE visible
30 Jul ? 01:59:56 10° NNW 02:04:05 40° WNW 02:04:05 40° WNW visible
30 Jul ? 23:45:02 10° N 23:48:43 18° NE 23:50:24 16° ENE visible
31 Jul ? 01:26:13 10° NNW 01:30:53 62° WNW 01:30:53 62° WNW visible
31 Jul ? 23:12:33 10° NNE 23:14:48 12° NE 23:17:03 10° ENE visible
